This is the latest recevied weather packets stored in our database for station/object HK6REC-20. If no packets are shown the sender has not sent any weather packets the latest 10 day(s).
| Time | Temp. | Humidity | Pressure | Rain* | Wind** | Luminosity | Snow |
|---|---|---|---|---|---|---|---|
| 1777824803 | 22.22° C | 81% | 1015 hPa | 0 mm | - | - | - |
| 1777823602 | 22.22° C | 81% | 1014 hPa | 0 mm | - | - | - |
| 1777822401 | 21.11° C | 86% | 1015 hPa | 0 mm | - | - | - |
| 1777821200 | 21.11° C | 86% | 1016 hPa | 0 mm | - | - | - |
| 1777819999 | 20° C | 94% | 1015 hPa | 0 mm | - | - | - |
| 1777818798 | 20° C | 94% | 1016 hPa | 0 mm | - | - | - |
| 1777817597 | 20° C | 94% | 1018 hPa | 0 mm | - | - | - |
| 1777816396 | 20° C | 94% | 1017 hPa | 0 mm | - | - | - |
| 1777815195 | 17.22° C | 95% | 1017 hPa | 0 mm | - | - | - |
| 1777813994 | 17.22° C | 95% | 1016 hPa | 0 mm | - | - | - |
| 1777812793 | 17.22° C | 95% | 1016 hPa | 0 mm | - | - | - |
| 1777811592 | 17.22° C | 96% | 1017 hPa | 0 mm | - | - | - |
| 1777810391 | 17.22° C | 97% | 1017 hPa | 0 mm | - | - | - |
| 1777809190 | 17.78° C | 98% | 1016 hPa | 0 mm | - | - | - |
| 1777807990 | 17.78° C | 98% | 1017 hPa | 0 mm | - | - | - |
| 1777806788 | 17.78° C | 98% | 1016 hPa | 0 mm | - | - | - |
| 1777805588 | 17.78° C | 98% | 1015 hPa | 0 mm | - | - | - |
| 1777804386 | 17.78° C | 98% | 1015 hPa | 0 mm | - | - | - |
| 1777803186 | 17.78° C | 98% | 1015 hPa | 0 mm | - | - | - |
| 1777801985 | 17.22° C | 97% | 1015 hPa | 0 mm | - | - | - |
| 1777800784 | 16.11° C | 94% | 1015 hPa | 0 mm | - | - | - |
| 1777799583 | 16.67° C | 95% | 1016 hPa | 0 mm | - | - | - |
| 1777798382 | 16.67° C | 95% | 1016 hPa | 0 mm | - | - | - |
| 1777797181 | 17.22° C | 97% | 1016 hPa | 0 mm | - | - | - |
| 1777795980 | 16.67° C | 95% | 1016 hPa | 0 mm | - | - | - |
* Rain latest hour (hover to see other rain measurements)
** Current wind speed in m/s (hover to see current wind gust speed)